Change the Weather History Date:

Sunday, August 18, 2013

  Actual Average Record
Temperature  
Mean Temperature 76 °F 70 °F  
Max Temperature 92 °F 86 °F 104 °F (2001)
Min Temperature 60 °F 54 °F 40 °F (1954)
Degree Days  
Heating Degree Days 0 0  
Month to date heating degree days 0 0  
Since 1 June heating degree days 78 119  
Since 1 July heating degree days 0 12  
Cooling Degree Days 11 6  
Month to date cooling degree days 173 124  
Year to date cooling degree days 694 407  
Since 1 June cooling degree days 679 394  
Growing Degree Days 26 (Base 50)    
Moisture  
Dew Point 46 °F    
Average Humidity 37    
Maximum Humidity 56    
Minimum Humidity 18    
Precipitation  
Precipitation 0.00 in 0.00 in 0.45 in (1922)
Month to date precipitation T 0.14  
Year to date precipitation 2.52 6.74  
Sea Level Pressure  
Sea Level Pressure 29.95 in    
Wind  
Wind Speed 5 mph (SSW)    
Max Wind Speed 12 mph    
Max Gust Speed 14 mph    
Visibility 10 miles    
Events      
T = Trace of Precipitation, MM = Missing Value Source: NWS Daily Summary

Daily Weather History Graph

Daily Weather History Graph

Search for Another Location

Airport or City:

Trip Planner

Search our weather history database for the weather conditions in past years. The results will help you decide how hot, cold, wet, or windy it might be!

Date:

Astronomy

Aug. 18, 2013 Rise Set
Actual Time 6:47 AM MDT 8:34 PM MDT
Civil Twilight 6:17 AM MDT 9:04 PM MDT
Nautical Twilight 5:40 AM MDT 9:41 PM MDT
Astronomical Twilight 5:01 AM MDT 10:20 PM MDT
Moon 6:45 PM MDT (8/18) 4:00 AM MDT (8/18)
Length of Visible Light 14h 46m
Length of Day
13h 46m
Waxing Gibbous, 92% of the Moon is Illuminated
Aug 18
Waxing Gibbous
Aug 20
Full
Aug 28
Last Quarter
Sep 5
New
Sep 12
First Quarter

Hourly Weather History & Observations

Time (MDT) Temp. Heat Index Dew Point Humidity Pressure Visibility Wind Dir Wind Speed Gust Speed Precip Events Conditions
12:53 AM 73.0 °F - 35.1 °F 25% 29.88 in 10.0 mi SSE 3.5 mph - N/A   Clear
1:53 AM 72.0 °F - 35.1 °F 26% 29.89 in 10.0 mi SE 3.5 mph - N/A   Clear
2:53 AM 64.9 °F - 39.0 °F 39% 29.89 in 10.0 mi ESE 3.5 mph - N/A   Clear
3:53 AM 64.0 °F - 37.0 °F 37% 29.90 in 10.0 mi Calm Calm - N/A   Clear
4:53 AM 64.0 °F - 37.9 °F 38% 29.92 in 10.0 mi SSE 3.5 mph - N/A   Clear
5:53 AM 64.0 °F - 39.9 °F 41% 29.94 in 10.0 mi South 5.8 mph - N/A   Clear
6:53 AM 61.0 °F - 42.1 °F 50% 29.97 in 10.0 mi SSW 5.8 mph - N/A   Clear
7:53 AM 62.1 °F - 45.0 °F 53% 30.00 in 10.0 mi South 4.6 mph - N/A   Clear
8:53 AM 66.0 °F - 50.0 °F 56% 30.02 in 10.0 mi South 3.5 mph - N/A   Clear
9:53 AM 69.1 °F - 50.0 °F 51% 30.03 in 10.0 mi WSW 8.1 mph - N/A   Clear
10:53 AM 72.0 °F - 51.1 °F 48% 30.03 in 10.0 mi SSW 6.9 mph - N/A   Clear
11:53 AM 75.9 °F - 52.0 °F 43% 30.03 in 10.0 mi Variable 4.6 mph - N/A   Clear
12:53 PM 79.0 °F - 52.0 °F 39% 30.01 in 10.0 mi WSW 4.6 mph - N/A   Clear
1:53 PM 82.9 °F - 51.1 °F 33% 29.99 in 10.0 mi SSW 5.8 mph - N/A   Clear
2:53 PM 86.0 °F - 51.1 °F 30% 29.98 in 10.0 mi WSW 5.8 mph - N/A   Clear
3:53 PM 90.0 °F 87.7 °F 54.0 °F 29% 29.95 in 10.0 mi West 6.9 mph - N/A   Clear
4:53 PM 91.0 °F - 44.1 °F 20% 29.93 in 10.0 mi WSW 8.1 mph - N/A   Clear
5:53 PM 91.0 °F - 43.0 °F 19% 29.91 in 10.0 mi SW 6.9 mph - N/A   Clear
6:53 PM 90.0 °F - 45.0 °F 21% 29.90 in 10.0 mi SSW 5.8 mph - N/A   Clear
7:53 PM 86.0 °F - 50.0 °F 29% 29.90 in 10.0 mi South 4.6 mph - N/A   Clear
8:53 PM 80.1 °F - 50.0 °F 35% 29.92 in 10.0 mi SSE 4.6 mph - N/A   Clear
9:53 PM 80.1 °F - 48.0 °F 32% 29.93 in 10.0 mi South 5.8 mph - N/A   Clear
10:53 PM 73.9 °F - 48.0 °F 40% 29.95 in 10.0 mi Calm Calm - N/A   Clear
11:53 PM 73.9 °F - 45.0 °F 35% 29.95 in 10.0 mi WSW 3.5 mph - N/A   Clear